Weather History for Lapeer, MI

Change the Weather History Date:

Wednesday, May 22, 2013

  Actual Average (KFNT) Record (KFNT)
Temperature  
Mean Temperature 70 °F 59 °F  
Max Temperature 79 °F 70 °F 91 °F (1934)
Min Temperature 60 °F 47 °F 32 °F (1929)
Degree Days  
Heating Degree Days 0 7  
Month to date heating degree days 225  
Since 1 July heating degree days 6832  
Cooling Degree Days 4 1  
Month to date cooling degree days 14  
Year to date cooling degree days 18  
Growing Degree Days 20 (Base 50)    
Moisture  
Dew Point 62 °F    
Average Humidity 84    
Maximum Humidity 97    
Minimum Humidity 48    
Precipitation  
Precipitation 0.01 in 0.10 in 1.12 in (2004)
Month to date precipitation 2.18  
Year to date precipitation 10.09  
Snow  
Snow 0.00 in 0.00 in T in ()
Month to date snowfall 0.0  
Since 1 July snowfall 47.4  
Snow Depth -    
Sea Level Pressure  
Sea Level Pressure 29.70 in    
Wind  
Wind Speed 5 mph (SW)    
Max Wind Speed 20 mph    
Max Gust Speed 28 mph    
Visibility 10 miles    
Events Rain    
T = Trace of Precipitation, MM = Missing Value Source: NWS Daily Summary

Daily Weather History Graph

Daily Weather History Graph

Search for Another Location

Airport:

Trip Planner

Search our weather history database for the weather conditions in past years. The results will help you decide how hot, cold, wet, or windy it might be!

Date:

Astronomy

May. 22, 2013 Rise Set
Actual Time 6:02 AM EDT 8:57 PM EDT
Civil Twilight 5:29 AM EDT 9:30 PM EDT
Nautical Twilight 4:46 AM EDT 10:13 PM EDT
Astronomical Twilight 3:57 AM EDT 11:03 PM EDT
Moon 6:14 PM EDT (5/22) 4:10 AM EDT (5/22)
Length of Visible Light 16h 01m
Length of Day
14h 54m
Waxing Gibbous, 91% of the Moon is Illuminated
May 22
Waxing Gibbous
May 25
Full
May 31
Last Quarter
Jun 8
New
Jun 16
First Quarter

Hourly Weather History & Observations

Time (EDT) Temp. Dew Point Humidity Pressure Visibility Wind Dir Wind Speed Gust Speed Precip Events Conditions
12:13 AM 63.0 °F 61.7 °F 96% 29.76 in 10.0 mi Calm Calm - N/A   Scattered Clouds
12:34 AM 62.2 °F 60.8 °F 95% 29.76 in 10.0 mi Calm Calm - N/A   Clear
12:54 AM 61.9 °F 60.6 °F 96% 29.75 in 10.0 mi Calm Calm - N/A   Clear
1:13 AM 61.2 °F 59.9 °F 96% 29.75 in 10.0 mi Calm Calm - N/A   Clear
1:34 AM 61.9 °F 60.4 °F 95% 29.74 in 10.0 mi Calm Calm - N/A   Scattered Clouds
1:53 AM 61.7 °F 60.6 °F 96% 29.73 in 10.0 mi Calm Calm - N/A   Scattered Clouds
2:14 AM 62.8 °F 60.3 °F 91% 29.73 in 10.0 mi Calm Calm - N/A   Clear
2:34 AM 62.4 °F 60.3 °F 93% 29.74 in 10.0 mi Calm Calm - N/A   Clear
2:53 AM 64.4 °F 59.9 °F 85% 29.73 in 10.0 mi Calm Calm - N/A   Clear
3:14 AM 61.3 °F 59.9 °F 95% 29.73 in 10.0 mi Calm Calm - N/A   Clear
3:33 AM 61.7 °F 60.3 °F 95% 29.73 in 10.0 mi Calm Calm - N/A   Clear
3:53 AM 61.5 °F 60.1 °F 95% 29.73 in 10.0 mi Calm Calm - N/A   Clear
4:14 AM 61.3 °F 60.1 °F 96% 29.73 in 10.0 mi Calm Calm - N/A   Clear
4:33 AM 61.2 °F 59.9 °F 96% 29.73 in 10.0 mi Calm Calm - N/A   Clear
4:54 AM 60.8 °F 59.9 °F 97% 29.73 in 10.0 mi Calm Calm - N/A   Clear
5:14 AM 60.1 °F 59.2 °F 97% 29.72 in 10.0 mi Calm Calm - N/A   Clear
5:33 AM 61.0 °F 59.9 °F 96% 29.72 in 10.0 mi Calm Calm - N/A   Clear
5:54 AM 61.2 °F 60.1 °F 96% 29.73 in 10.0 mi Calm Calm - N/A   Clear
6:13 AM 61.7 °F 60.6 °F 96% 29.72 in 10.0 mi Calm Calm - N/A   Clear
6:33 AM 62.4 °F 60.8 °F 94% 29.72 in 10.0 mi Calm Calm - N/A   Clear
6:54 AM 62.4 °F 61.2 °F 96% 29.72 in 10.0 mi Calm Calm - N/A   Scattered Clouds
7:13 AM 63.0 °F 61.7 °F 96% 29.73 in 10.0 mi Calm Calm - N/A   Mostly Cloudy
7:34 AM 67.1 °F 62.2 °F 84% 29.74 in 10.0 mi SSW 6.9 mph - N/A Rain Rain
7:54 AM 67.1 °F 62.6 °F 85% 29.74 in 10.0 mi SSW 6.9 mph - N/A Rain Light Rain
8:13 AM 67.1 °F 62.6 °F 85% 29.74 in 10.0 mi SSW 5.8 mph - N/A Rain Light Rain
8:34 AM 66.6 °F 63.0 °F 88% 29.73 in 10.0 mi South 4.6 mph - N/A   Drizzle
8:53 AM 66.7 °F 63.5 °F 89% 29.73 in 10.0 mi SSW 6.9 mph - N/A   Overcast
9:13 AM 67.5 °F 64.0 °F 89% 29.73 in 10.0 mi SSW 8.1 mph - N/A   Overcast
9:34 AM 67.6 °F 64.0 °F 88% 29.73 in 10.0 mi SSW 8.1 mph - N/A   Light Drizzle
9:53 AM 69.1 °F 64.9 °F 87% 29.73 in 10.0 mi SSW 10.4 mph 18.4 mph N/A   Light Drizzle
10:13 AM 71.2 °F 64.8 °F 80% 29.72 in 10.0 mi SSW 10.4 mph 16.1 mph N/A   Mostly Cloudy
10:34 AM 71.1 °F 64.0 °F 78% 29.72 in 10.0 mi SSW 11.5 mph 18.4 mph N/A   Overcast
10:53 AM 70.9 °F 63.7 °F 78% 29.72 in 10.0 mi SSW 11.5 mph 17.3 mph N/A   Overcast
11:14 AM 70.5 °F 64.2 °F 80% 29.72 in 10.0 mi SW 10.4 mph - N/A Rain Rain
11:33 AM 70.7 °F 64.9 °F 82% 29.71 in 10.0 mi SSW 10.4 mph - N/A Rain Light Rain
11:53 AM 70.7 °F 64.4 °F 80% 29.71 in 10.0 mi SSW 10.4 mph - N/A   Overcast
12:14 PM 71.4 °F 64.8 °F 79% 29.71 in 10.0 mi South 10.4 mph - N/A   Overcast
12:33 PM 72.1 °F 64.2 °F 76% 29.70 in 10.0 mi SW 9.2 mph - N/A   Overcast
12:54 PM 72.3 °F 63.9 °F 75% 29.69 in 10.0 mi SW 8.1 mph - N/A   Overcast
1:14 PM 72.5 °F 63.9 °F 74% 29.68 in 10.0 mi SSW 12.7 mph 17.3 mph N/A   Overcast
1:33 PM 73.4 °F 63.7 °F 71% 29.68 in 10.0 mi SSW 11.5 mph 16.1 mph N/A   Overcast
1:54 PM 72.7 °F 63.1 °F 72% 29.67 in 10.0 mi SSW 12.7 mph 17.3 mph N/A Rain Light Rain
2:14 PM 71.6 °F 63.0 °F 74% 29.67 in 10.0 mi SW 15.0 mph 21.9 mph N/A   Light Drizzle
2:33 PM 72.1 °F 62.6 °F 72% 29.66 in 10.0 mi SW 13.8 mph 19.6 mph N/A   Overcast
2:54 PM 72.3 °F 62.4 °F 71% 29.66 in 10.0 mi SW 13.8 mph 17.3 mph N/A   Overcast
3:14 PM 73.4 °F 61.9 °F 67% 29.65 in 10.0 mi SW 15.0 mph 24.2 mph N/A   Overcast
3:33 PM 75.4 °F 61.7 °F 62% 29.65 in 10.0 mi SSW 19.6 mph 25.3 mph N/A   Mostly Cloudy
3:54 PM 76.1 °F 61.0 °F 59% 29.64 in 10.0 mi SW 19.6 mph 26.5 mph N/A   Mostly Cloudy
4:13 PM 77.7 °F 61.0 °F 56% 29.63 in 10.0 mi SSW 16.1 mph 24.2 mph N/A   Overcast
4:33 PM 77.9 °F 60.4 °F 55% 29.63 in 10.0 mi SW 16.1 mph 26.5 mph N/A   Overcast
4:54 PM 78.8 °F 59.4 °F 51% 29.62 in 10.0 mi SW 19.6 mph 27.6 mph N/A   Mostly Cloudy
5:13 PM 79.2 °F 58.8 °F 50% 29.62 in 10.0 mi SW 15.0 mph 26.5 mph N/A   Scattered Clouds
5:34 PM 79.2 °F 57.9 °F 48% 29.62 in 10.0 mi WSW 16.1 mph 27.6 mph N/A   Scattered Clouds
5:54 PM 77.9 °F 58.1 °F 50% 29.62 in 10.0 mi WSW 16.1 mph 24.2 mph N/A   Mostly Cloudy
6:13 PM 70.3 °F 59.9 °F 69% 29.65 in 10.0 mi WNW 17.3 mph 24.2 mph N/A   Overcast
6:34 PM 65.8 °F 61.9 °F 87% 29.65 in 7.0 mi WNW 6.9 mph - N/A Rain Light Rain
6:54 PM 65.3 °F 61.9 °F 89% 29.67 in 10.0 mi WSW 6.9 mph - 0.01 in Rain Rain
7:13 PM 64.9 °F 62.6 °F 92% 29.67 in 7.0 mi SW 4.6 mph - N/A Rain Rain
7:34 PM 65.3 °F 62.8 °F 92% 29.67 in 10.0 mi West 4.6 mph - N/A   Mostly Cloudy
7:53 PM 65.3 °F 62.8 °F 92% 29.67 in 10.0 mi WSW 6.9 mph - N/A   Mostly Cloudy
8:14 PM 65.7 °F 62.6 °F 90% 29.67 in 10.0 mi SW 6.9 mph - N/A   Overcast
8:34 PM 64.9 °F 62.6 °F 92% 29.66 in 10.0 mi SW 5.8 mph - N/A Rain Rain
8:53 PM 64.6 °F 62.6 °F 93% 29.66 in 10.0 mi WSW 4.6 mph - N/A   Scattered Clouds
9:14 PM 63.9 °F 62.1 °F 94% 29.67 in 10.0 mi SW 4.6 mph - N/A   Scattered Clouds
9:34 PM 63.5 °F 61.9 °F 94% 29.67 in 10.0 mi South 3.5 mph - N/A   Clear
9:53 PM 62.8 °F 61.5 °F 96% 29.68 in 10.0 mi SSW 3.5 mph - N/A   Scattered Clouds
10:14 PM 63.5 °F 61.7 °F 94% 29.68 in 10.0 mi SW 5.8 mph - N/A   Overcast
10:34 PM 63.7 °F 61.3 °F 92% 29.69 in 10.0 mi SW 5.8 mph - N/A   Overcast
10:53 PM 63.7 °F 61.0 °F 91% 29.68 in 10.0 mi SW 5.8 mph - N/A   Overcast
11:14 PM 63.0 °F 60.4 °F 91% 29.69 in 10.0 mi SW 9.2 mph - N/A   Scattered Clouds
11:33 PM 63.0 °F 60.1 °F 90% 29.67 in 10.0 mi WSW 8.1 mph - N/A   Clear
11:54 PM 62.6 °F 59.9 °F 91% 29.67 in 10.0 mi WSW 8.1 mph - N/A   Clear